Powrót do katalogu

STARLINK-1568

AktywnyŁącznośćVLEO
NORAD 46080·PAYLOAD·🇺🇸 United States

Wystrzelony Aug 7, 2020 z Cape Canaveral Space Force Station

Loading…

Następne Przeloty (najbliższe 24 godziny)

TLE

ŚwieżeSource: CelesTrak SupGP

Epoka: Sep 15, 2026, 01:08 UTC

1 46080C 20055BF  26258.04770833  .00034601  00000+0  37098-3 0  2586
2 46080  53.0533 198.1996 0004654  60.2362 112.9924 15.63141008    18

Śledź STARLINK-1568 w czasie rzeczywistym z AllMySat

Download on the App Store